Share

Aspermont, TX

WT_Meso Aspermont 3NE (MASST2) Elev 1740 ft | 33.17 °N, 100.20 °W | Change Station

Current weather conditions updated 49 minutes ago

Overcast
Overcast
63 °F
Feels Like 63 °F
N
10
Wind Variable Wind from SW
Gusts 13.0 mph
Sunrise 7:04 AM
Sunset 8:15 PM
Moon Waning Gibbous

Today is forecast to be Much Warmer than yesterday.

Pressure 30.04 in
Visibility 7.0 miles
Clouds Overcast 1500 ft
Dew Point 59 °F
Humidity 90%
Rainfall -999.00 in
Snow Depth Not available.
UV 0 out of 16
Pollen 8.60 out of 12
Air Quality Not available.
Flu Activity Local Activity
METAR KSWW 211155Z AUTO 23014G18KT 7SM OVC015 19/16 A3004 RMK AO2 7//// T01850161 10185 20174

More Conditions Fewer Conditions

Pressure 30.04 in
Visibility 7.0 miles
Clouds Overcast 1500 ft
Dew Point 59 °F
Humidity 90%
Rainfall -999.00 in
Snow Depth Not available.
UV 0 out of 16
Pollen 8.60 out of 12
Air Quality Not available.
Flu Activity Local Activity
METAR KSWW 211155Z AUTO 23014G18KT 7SM OVC015 19/16 A3004 RMK AO2 7//// T01850161 10185 20174

More Conditions Fewer Conditions

10-Day Weather Forecast

Almanac

Astronomy

Apr. 21, 2014 Rise Set
Actual Time 7:04 AM CDT 8:15 PM CDT
Civil Twilight 6:38 AM CDT 8:41 PM CDT
Nautical Twilight 6:07 AM CDT 9:12 PM CDT
Astronomical Twilight 5:35 AM CDT 9:44 PM CDT
Moon 1:43 AM CDT 12:36 PM CDT
Length of Visible Light 14h 03m
Length of Day
13h 11m
Tomorrow will be 1m 53s longer.
Waning Gibbous, 59% of the Moon is Illuminated
Today
Waning Gibbous
Apr 22
Last Quarter
Apr 29
New
May 6
First Quarter
May 14
Full

Today's Extremes

State Highs State Lows

Community

  • Snowy Robin
    Snowy Robin
  • Sun Pillar and Geese
    Sun Pillar and Geese
  • Showers on the Way
    Showers on the Way
  • Easter Morning Fog
    Easter Morning Fog
  • Easter Dance
    Easter Dance

WunderPhotos

Upload Photos

1,703,598 photos uploaded!

Nearby

Snow Depth

Station Depth Elevation
No new snow has been reported.

Coastal Water Temperatures

Place Temperature
No Stations Reporting

Earthquake Activity

City Distance Mag. Time & Date
No recent earthquake activity has been reported nearby.
Minimum magnitude displayed is 2.5.

Nearby Weather Stations

Station Location Temp. Dew Point Humidity Wind Precip. Elev Updated Type
WT_Meso Aspermont 3NE, Aspermont, TX 63 °F 59 °F 90% SW  at  10 mph 0.00 in / hr 1740 ft 6:25 AM CDT MADIS
WT_Meso Jayton 1S, Girard, TX 60 °F 58 °F 95% SW  at  6 mph 0.00 in / hr 2009 ft 6:15 AM CDT MADIS
Hamlin, TX 64.2 °F 59 °F 83% SW  at  8.9 mph - / hr 1834 ft 7:13 AM CDT Normal

Show More Stations Show Fewer Stations

What do you think?

We're not finished. Please let us know what you like, what you don't like, and what you are still missing.